Zurück zum Katalog

THOR ABLESTAR DEB

AktivLEO
NORAD 299·DEBRIS·🇺🇸 United States

Gestartet Jun 29, 1961 von Cape Canaveral Space Force Station

Loading…

Nächste Überflüge (nächste 24 Stunden)

TLE

AktuellSource: Space-Track

Epoche: Sep 13, 2026, 04:04 UTC

1 00299U 61015CQ  26256.17006441  .00000019  00000-0  90301-4 0  9994
2 00299  67.1673 189.9510 0197470 233.6379 124.6330 13.69046802241102

Verfolge THOR ABLESTAR DEB in Echtzeit mit AllMySat

Download on the App Store